Location: Wiesbaden
(50.0830°N, 8.2500°E)
Time: 07:14:16
(UTC+02:00)

ISS - Pass Details

Date: 25 May 2019
Orbit: 408 x 418 km, 51.6° (Epoch: 27 May)

Event Time Altitude Azimuth Distance (km) Brightness Sun altitude
Rises 23:24:07 0° 282° (WNW) 2,355 0.7 -14.1°
Maximum altitude 23:29:34 73° 10° (N) 440 -3.6 -14.5°
Enters shadow 23:32:20 14° 94° (E) 1,258 -1.6 -14.7°
